Back to catalog

COSMOS 970 DEB

AliveLEO
NORAD 10580·DEBRIS·🇷🇺 Russia

Launched Dec 21, 1977 from Baikonur Cosmodrome

Loading…

Next Passes (next 24 hours)

TLE

FreshSource: Space-Track

Epoch: Sep 13, 2026, 12:25 UTC

1 10580U 77121X   26256.51764328  .00000151  00000-0  37739-3 0  9998
2 10580  65.6817 323.3847 0087711 232.9220 242.6511 13.44762160386173

Track COSMOS 970 DEB in real time with AllMySat

Download on the App Store